Tracking 18630 objects as of 26-May-2017
HD Live streaming from Space Station
objects crossing your sky now

BREEZE-M DEB (TANK)

Track BREEZE-M DEB (TANK) now!


NORAD ID: 32374
Int'l Code: 2007-058B
Perigee: 230.0 km
Apogee: 34,748.8 km
Inclination: 45.8 °
Period: 611.3 minutes
Semi major axis: 23860 km
RCS: 5.0489 m2 (large)
Launch date: December 9, 2007
Source: Commonwealth of Independent States (former USSR) (CIS)
Launch site: TYURATAM MISSILE AND SPACE COMPLEX (TTMTR)

Note: This is SATELLITE DEBRIS
Your satellite tracking list
Your tracking list is empty





NASA's NSSDC Master Catalog

Two Line Element Set (TLE):
1 32374U 07058B   17145.11898367 +.00003227 +00000-0 +44554-3 0  9999
2 32374 045.7584 188.4933 7233486 260.1592 018.7800 02.35551243080257
Source of the keplerian elements: AFSPC